Location: Bismarck
(46.7731°N, 100.8200°W)
Time: 17:19:30
(UTC-05:00)

Landsat 7 - Visible Passes

Search period start: 01 October 2014 00:00
Search period end: 11 October 2014 00:00
Orbit: 702 x 703 km, 98.2° (Epoch: 01 October)

Date Brightness Start Highest point End Pass type
(mag) Time Alt. Az. Time Alt. Az. Time Alt. Az.
01 Oct 6.1 22:44:13 16° N 22:44:13 16° N 22:45:19 10° N visible
02 Oct 6.2 21:48:44 11° NNE 21:48:44 11° NNE 21:49:01 10° NNE visible
02 Oct 6.6 23:27:37 14° NNW 23:27:37 14° NNW 23:28:18 10° NNW visible
03 Oct 6.2 22:32:08 14° N 22:32:08 14° N 22:32:58 10° N visible
04 Oct 6.6 23:15:32 13° N 23:15:32 13° N 23:16:06 10° N visible
05 Oct 6.3 22:20:02 12° NNE 22:20:02 12° NNE 22:20:33 10° N visible
06 Oct 6.6 23:03:26 13° N 23:03:26 13° N 23:03:51 10° N visible
07 Oct 6.4 22:07:56 11° NNE 22:07:56 11° NNE 22:08:04 10° NNE visible
08 Oct 6.6 22:51:19 11° N 22:51:19 11° N 22:51:34 10° N visible
10 Oct 6.6 22:39:13 10° N 22:39:13 10° N 22:39:13 10° N visible
